GW5027 Weather Reports


Display with metric or nautical units.
time (UTC)temp
F
wind
direction
speed
MPH
gust
MPH
rain 1hr
in
rain 24hr
in
rain mn
in
humidity
%
barometer
mb
20260507234601 62 81 0.0 2.0 0.00 0.00 0.00 64 1010.8
20260507234501 62 63 0.0 2.0 0.00 0.00 0.00 63 1015.3
20260507234100 62 89 0.0 1.0 0.00 0.00 0.00 63 1010.9
20260507234001 62 78 0.0 1.0 0.00 0.00 0.00 63 1015.4
20260507233601 62 94 0.0 2.0 0.00 0.00 0.00 63 1010.8
20260507233501 62 94 0.0 2.0 0.00 0.00 0.00 63 1015.4
20260507233100 62 94 0.0 3.0 0.00 0.00 0.00 62 1010.9
20260507233004 62 96 1.0 3.0 0.00 0.00 0.00 63 1015.4
20260507233001 62 96 0.0 3.0 0.00 0.00 0.00 63 1010.9
20260507232600 62 159 1.0 3.0 0.00 0.00 0.00 62 1010.9
20260507232501 62 133 1.0 3.0 0.00 0.00 0.00 62 1015.4
20260507232100 62 163 0.0 1.0 0.00 0.00 0.00 62 1011.0
20260507232001 62 163 0.0 1.0 0.00 0.00 0.00 62 1015.5
20260507231600 62 108 0.0 1.0 0.00 0.00 0.00 63 1011.0
20260507231501 62 108 0.0 2.0 0.00 0.00 0.00 62 1015.5
20260507231100 62 97 0.0 2.0 0.00 0.00 0.00 63 1011.0
20260507231002 62 103 1.0 3.0 0.00 0.00 0.00 63 1015.6
20260507230600 62 200 0.0 3.0 0.00 0.00 0.00 63 1011.1
20260507230501 62 210 2.0 3.0 0.00 0.00 0.00 63 1015.6
20260507230114 62 98 1.0 3.0 0.00 0.00 0.00 63 1011.1
20260507230006 62 92 2.0 3.0 0.00 0.00 0.00 63 1015.6
20260507230002 62 92 1.0 3.0 0.00 0.00 0.00 63 1011.1
20260507225600 62 83 2.0 5.0 0.00 0.00 0.00 64 1011.1
20260507225500 62 107 2.0 5.0 0.00 0.00 0.00 64 1015.6
20260507225102 62 96 2.0 5.0 0.00 0.00 0.00 64 1011.1
20260507225001 62 83 3.0 5.0 0.00 0.00 0.00 64 1015.7
20260507224601 62 105 2.0 5.0 0.00 0.00 0.00 65 1011.1
20260507224501 62 94 3.0 5.0 0.00 0.00 0.00 65 1015.7
20260507224104 62 115 2.0 6.0 0.00 0.00 0.00 66 1011.2
20260507224002 62 70 3.0 6.0 0.00 0.00 0.00 67 1015.7
20260507223600 61 102 2.0 6.0 0.00 0.00 0.00 69 1011.1
20260507223501 61 86 2.0 4.0 0.00 0.00 0.00 70 1015.7
20260507223210 61 72 2.0 4.0 0.00 0.00 0.00 72 1011.1
20260507223001 61 100 2.0 3.0 0.00 0.00 0.00 73 1015.7
20260507222600 61 99 1.0 3.0 0.00 0.00 0.00 74 1011.1
20260507222100 61 76 1.0 3.0 0.00 0.00 0.00 72 1011.2
20260507222002 61 76 1.0 3.0 0.00 0.00 0.00 72 1015.7
20260507221600 62 96 1.0 4.0 0.00 0.00 0.00 71 1011.1
20260507221501 62 88 2.0 4.0 0.00 0.00 0.00 71 1015.7
20260507221100 61 95 2.0 4.0 0.00 0.00 0.00 71 1011.1
20260507221001 61 124 3.0 4.0 0.00 0.00 0.00 72 1015.6
20260507220600 61 113 2.0 4.0 0.00 0.00 0.00 73 1011.1
20260507220502 61 129 2.0 4.0 0.00 0.00 0.00 73 1015.6
20260507220100 61 94 2.0 4.0 0.00 0.00 0.00 72 1011.1
20260507220009 61 98 2.0 4.0 0.00 0.00 0.00 72 1015.6
20260507220004 61 103 2.0 4.0 0.00 0.00 0.00 72 1011.1
20260507215600 62 59 1.0 5.0 0.00 0.00 0.00 72 1011.1
20260507215508 62 153 2.0 5.0 0.00 0.00 0.00 72 1015.6
20260507215505 62 153 1.0 5.0 0.00 0.00 0.00 72 1011.1
20260507215107 62 130 2.0 5.0 0.00 0.00 0.00 71 1011.0
20260507214959 62 120 2.0 5.0 0.00 0.00 0.00 71 1015.6
20260507214501 62 77 2.0 4.0 0.00 0.00 0.00 71 1011.0
20260507214002 62 137 1.0 4.0 0.00 0.00 0.00 72 1011.0
20260507213604 61 98 1.0 4.0 0.00 0.00 0.00 72 1011.0
20260507213500 62 98 2.0 4.0 0.00 0.00 0.00 72 1015.6
20260507213146 62 88 2.0 4.0 0.00 0.00 0.00 72 1011.1
20260507213001 62 116 1.0 4.0 0.00 0.00 0.00 72 1015.6
20260507212601 62 82 0.0 2.0 0.00 0.00 0.00 72 1011.0
20260507212504 62 74 1.0 2.0 0.00 0.00 0.00 72 1015.5
20260507212059 62 93 0.0 2.0 0.00 0.00 0.00 73 1011.0
20260507212001 62 105 1.0 2.0 0.00 0.00 0.00 73 1015.5
20260507211600 62 77 1.0 2.0 0.00 0.00 0.00 73 1010.9
20260507211502 62 81 1.0 2.0 0.00 0.00 0.00 74 1015.5
20260507211059 62 72 1.0 2.0 0.00 0.00 0.00 76 1010.9
20260507210559 63 25 0.0 0.0 0.00 0.00 0.00 77 1010.8
20260507210104 63 25 0.0 1.0 0.00 0.00 0.00 76 1010.8
20260507210005 63 24 0.0 1.0 0.00 0.00 0.00 76 1015.3
20260507210002 63 24 0.0 1.0 0.00 0.00 0.00 76 1010.8
20260507205600 63 25 0.0 2.0 0.00 0.00 0.00 76 1010.7
20260507205100 63 343 0.0 2.0 0.00 0.00 0.00 76 1010.7
20260507205001 63 340 0.0 2.0 0.00 0.00 0.00 76 1015.3
20260507204559 64 323 0.0 2.0 0.00 0.00 0.00 74 1010.6
20260507204500 64 13 0.0 2.0 0.00 0.00 0.00 74 1015.2
20260507204059 64 319 0.0 2.0 0.00 0.00 0.00 73 1010.6
20260507204001 64 352 0.0 2.0 0.00 0.00 0.00 72 1015.2
20260507203559 64 313 1.0 2.0 0.00 0.00 0.00 68 1010.6
20260507203502 64 312 1.0 2.0 0.00 0.00 0.00 67 1015.2
20260507203101 64 71 0.0 3.0 0.00 0.00 0.00 64 1010.6
20260507203002 64 72 1.0 3.0 0.00 0.00 0.00 63 1015.1
20260507202601 64 81 1.0 3.0 0.00 0.00 0.00 63 1010.5
20260507202500 64 77 1.0 3.0 0.00 0.00 0.00 63 1015.0
20260507202102 65 127 0.0 3.0 0.00 0.00 0.00 64 1010.4
20260507202002 65 105 1.0 3.0 0.00 0.00 0.00 64 1015.0
20260507201620 65 78 0.0 6.0 0.00 0.00 0.00 64 1010.4
20260507201100 65 131 1.0 6.0 0.00 0.00 0.00 63 1010.2
20260507201001 65 158 3.0 6.0 0.00 0.00 0.00 63 1014.7
20260507200600 65 117 2.0 6.0 0.00 0.00 0.00 63 1010.2
20260507200110 65 93 2.0 8.0 0.00 0.00 0.00 62 1010.1
20260507200006 66 91 4.0 8.0 0.00 0.00 0.00 62 1014.6
20260507200003 66 91 2.0 8.0 0.00 0.00 0.00 62 1010.1
20260507195559 66 123 4.0 8.0 0.00 0.00 0.00 62 1010.0
20260507195500 66 89 4.0 7.0 0.00 0.00 0.00 62 1014.5
20260507195100 65 103 4.0 8.0 0.00 0.00 0.00 63 1009.9
20260507195001 65 74 5.0 8.0 0.00 0.00 0.00 64 1014.5
20260507194600 66 117 5.0 8.0 0.00 0.00 0.00 64 1009.9
20260507194502 66 117 5.0 8.0 0.00 0.00 0.00 64 1014.4
20260507194059 66 76 4.0 7.0 0.00 0.00 0.00 64 1009.8
20260507194001 66 74 4.0 7.0 0.00 0.00 0.00 64 1014.2
20260507193601 66 65 4.0 7.0 0.00 0.00 0.00 65 1009.7
20260507193500 66 80 4.0 7.0 0.00 0.00 0.00 65 1014.2
20260507193100 66 120 4.0 7.0 0.00 0.00 0.00 65 1009.7
20260507193001 66 108 4.0 7.0 0.00 0.00 0.00 65 1014.2
20260507192606 66 113 3.0 5.0 0.00 0.00 0.00 65 1009.8
20260507192500 66 82 3.0 5.0 0.00 0.00 0.00 65 1014.2
20260507192059 66 90 2.0 5.0 0.00 0.00 0.00 65 1009.7
20260507192000 66 86 2.0 4.0 0.00 0.00 0.00 65 1014.2
20260507191600 67 89 2.0 5.0 0.00 0.00 0.00 65 1009.8
20260507191502 67 109 3.0 5.0 0.00 0.00 0.00 64 1014.3
20260507191100 67 83 2.0 5.0 0.00 0.00 0.00 64 1009.8
20260507191000 67 93 2.0 5.0 0.00 0.00 0.00 64 1014.3
20260507190559 67 89 2.0 4.0 0.00 0.00 0.00 64 1009.8
20260507190500 67 112 2.0 5.0 0.00 0.00 0.00 64 1014.3
20260507190006 67 72 3.0 5.0 0.00 0.00 0.00 64 1014.3
20260507190004 67 72 2.0 5.0 0.00 0.00 0.00 64 1009.8
20260507185502 67 93 3.0 6.0 0.00 0.00 0.00 64 1014.3
20260507185001 67 76 3.0 6.0 0.00 0.00 0.00 63 1009.8
20260507184502 67 99 3.0 6.0 0.00 0.00 0.00 62 1014.3
20260507184003 67 98 3.0 7.0 0.00 0.00 0.00 62 1014.3
20260507184001 67 98 2.0 7.0 0.00 0.00 0.00 62 1009.8
20260507183502 67 70 4.0 7.0 0.00 0.00 0.00 62 1014.3
20260507183500 67 70 4.0 7.0 0.00 0.00 0.00 62 1009.8
20260507183003 68 75 3.0 7.0 0.00 0.00 0.00 61 1014.3
20260507182504 68 84 3.0 5.0 0.00 0.00 0.00 62 1014.2
20260507182502 68 84 2.0 5.0 0.00 0.00 0.00 62 1009.7
20260507182002 68 139 3.0 5.0 0.00 0.00 0.00 61 1014.2
20260507182000 68 139 3.0 5.0 0.00 0.00 0.00 61 1009.7
20260507181502 68 62 3.0 6.0 0.00 0.00 0.00 61 1014.2
20260507181004 68 100 3.0 6.0 0.00 0.00 0.00 61 1009.7
20260507180500 68 61 1.0 5.0 0.00 0.00 0.00 60 1009.5
20260507180004 68 91 3.0 6.0 0.00 0.00 0.00 60 1014.1
20260507180001 68 91 2.0 6.0 0.00 0.00 0.00 60 1009.6
20260507175559 68 110 2.0 7.0 0.00 0.00 0.00 60 1009.4
20260507175101 68 86 2.0 8.0 0.00 0.00 0.00 60 1009.4
20260507175001 68 65 4.0 8.0 0.00 0.00 0.00 60 1014.0
20260507174603 68 85 3.0 8.0 0.00 0.00 0.00 59 1009.5
20260507174059 69 72 5.0 8.0 0.00 0.00 0.00 58 1009.4
20260507174001 69 86 4.0 10.0 0.00 0.00 0.00 58 1014.0
20260507173500 69 65 3.0 10.0 0.00 0.00 0.00 58 1009.4
20260507173005 69 82 4.0 8.0 0.00 0.00 0.00 57 1014.0
20260507173003 69 82 4.0 8.0 0.00 0.00 0.00 57 1009.4
20260507172502 69 48 2.0 8.0 0.00 0.00 0.00 57 1009.4
20260507172005 69 70 5.0 8.0 0.00 0.00 0.00 57 1013.9
20260507172001 69 70 3.0 8.0 0.00 0.00 0.00 57 1009.4
20260507171502 69 88 5.0 11.0 0.00 0.00 0.00 56 1013.9
20260507171001 69 63 4.0 14.0 0.00 0.00 0.00 55 1009.5
20260507170502 69 68 6.0 14.0 0.00 0.00 0.00 55 1009.6
20260507170002 69 110 5.0 11.0 0.00 0.00 0.00 54 1009.5
20260507165501 69 65 7.0 11.0 0.00 0.00 0.00 54 1009.6
20260507165003 70 68 4.0 12.0 0.00 0.00 0.00 53 1014.2
20260507165001 70 68 2.0 12.0 0.00 0.00 0.00 53 1009.7
20260507164502 70 60 5.0 12.0 0.00 0.00 0.00 52 1009.6
20260507164002 70 121 4.0 15.0 0.00 0.00 0.00 54 1014.1
20260507163501 70 76 5.0 12.0 0.00 0.00 0.00 54 1014.1
20260507163004 70 69 6.0 12.0 0.00 0.00 0.00 55 1014.0
20260507163000 70 69 5.0 12.0 0.00 0.00 0.00 55 1009.4
20260507162501 70 94 6.0 12.0 0.00 0.00 0.00 55 1013.9
20260507162028 70 58 7.0 15.0 0.00 0.00 0.00 56 1013.9
20260507162002 70 79 6.0 15.0 0.00 0.00 0.00 56 1009.3
20260507161504 70 62 9.0 17.0 0.00 0.00 0.00 57 1013.9
20260507161502 70 62 7.0 17.0 0.00 0.00 0.00 57 1009.4
20260507161002 70 65 9.0 17.0 0.00 0.00 0.00 58 1013.9
20260507160503 70 93 8.0 14.0 0.00 0.00 0.00 58 1014.0
20260507160501 70 93 8.0 14.0 0.00 0.00 0.00 58 1009.5
20260507160008 69 72 8.0 15.0 0.00 0.00 0.00 58 1014.0
20260507160005 69 72 8.0 15.0 0.00 0.00 0.00 58 1009.4
20260507155501 69 79 8.0 15.0 0.00 0.00 0.00 59 1014.0
20260507155001 69 92 8.0 17.0 0.00 0.00 0.00 58 1009.5
20260507154502 69 76 7.0 14.0 0.00 0.00 0.00 58 1009.6
20260507154001 68 70 6.0 14.0 0.00 0.00 0.00 57 1009.7
20260507153504 68 83 6.0 12.0 0.00 0.00 0.00 64 1009.8
20260507153002 68 68 4.0 9.0 0.00 0.00 0.00 64 1014.3
20260507152504 67 70 6.0 16.0 0.00 0.00 0.00 65 1014.4
20260507152501 67 338 3.0 16.0 0.00 0.00 0.00 65 1009.9
20260507152001 67 71 6.0 16.0 0.00 0.00 0.00 66 1010.0
20260507151502 67 70 9.0 16.0 0.00 0.00 0.00 64 1010.0
20260507151002 68 85 7.0 16.0 0.00 0.00 0.00 62 1014.3
20260507150504 68 86 7.0 16.0 0.00 0.00 0.00 63 1014.3
20260507150502 68 86 7.0 16.0 0.00 0.00 0.00 63 1009.8
20260507150003 69 126 7.0 15.0 0.00 0.00 0.00 62 1009.8
20260507145502 69 91 5.0 12.0 0.00 0.00 0.00 62 1009.8
20260507145002 69 60 4.0 12.0 0.00 0.00 0.00 62 1014.4
20260507145000 69 60 4.0 12.0 0.00 0.00 0.00 62 1009.9
20260507144502 69 13 4.0 11.0 0.00 0.00 0.00 60 1014.5
20260507144100 70 75 2.0 11.0 0.00 0.00 0.00 60 1010.1
20260507144003 70 22 3.0 11.0 0.00 0.00 0.00 61 1014.6
20260507144001 70 22 3.0 11.0 0.00 0.00 0.00 61 1010.1
20260507143504 70 96 4.0 12.0 0.00 0.00 0.00 57 1014.6
20260507143500 70 96 2.0 12.0 0.00 0.00 0.00 57 1010.1
20260507143003 69 305 5.0 14.0 0.00 0.00 0.00 59 1010.1
20260507142502 69 102 5.0 26.0 0.00 0.00 0.00 59 1010.2
20260507142003 69 153 6.0 26.0 0.00 0.00 0.00 58 1014.7
20260507142001 69 153 7.0 26.0 0.00 0.00 0.00 58 1010.2
20260507141501 69 240 5.0 12.0 0.00 0.00 0.00 57 1010.2
20260507141003 69 17 5.0 12.0 0.00 0.00 0.00 57 1010.3
20260507140501 69 335 4.0 13.0 0.00 0.00 0.00 59 1014.8
20260507140006 68 72 4.0 16.0 0.00 0.00 0.00 60 1015.0
20260507140002 68 72 1.0 16.0 0.00 0.00 0.00 60 1010.5
20260507135502 68 72 6.0 16.0 0.00 0.00 0.00 61 1010.6
20260507135003 68 356 4.0 14.0 0.00 0.00 0.00 60 1015.0
20260507135001 68 356 4.0 14.0 0.00 0.00 0.00 60 1010.5
20260507134504 67 62 5.0 14.0 0.00 0.00 0.00 62 1015.1
20260507134502 67 62 2.0 14.0 0.00 0.00 0.00 62 1010.6
20260507134000 67 71 4.0 20.0 0.00 0.00 0.00 60 1010.6
20260507133501 67 58 5.0 13.0 0.00 0.00 0.00 60 1015.2
20260507133004 67 73 4.0 21.0 0.00 0.00 0.00 60 1015.2
20260507133001 67 73 4.0 21.0 0.00 0.00 0.00 60 1010.7
20260507132501 68 70 4.0 21.0 0.00 0.00 0.00 59 1015.3
20260507132100 68 77 3.0 15.0 0.00 0.00 0.00 60 1010.8
20260507131600 67 94 4.0 15.0 0.00 0.00 0.00 60 1010.8
20260507131501 67 68 4.0 15.0 0.00 0.00 0.00 60 1015.4
20260507131002 68 66 4.0 13.0 0.00 0.00 0.00 58 1015.5
20260507130501 67 344 3.0 14.0 0.00 0.00 0.00 60 1011.0
20260507130005 67 318 5.0 17.0 0.00 0.00 0.00 60 1015.6
20260507130003 67 318 1.0 17.0 0.00 0.00 0.00 60 1011.1
20260507125502 67 74 5.0 17.0 0.00 0.00 0.00 59 1015.6
20260507125059 67 304 4.0 17.0 0.00 0.00 0.00 59 1011.3
20260507125002 67 226 5.0 17.0 0.00 0.00 0.00 61 1015.8
20260507124620 67 20 7.0 17.0 0.00 0.00 0.00 60 1011.2
20260507124502 67 65 5.0 17.0 0.00 0.00 0.00 60 1015.8
20260507124100 67 87 6.0 13.0 0.00 0.00 0.00 60 1011.2
20260507124002 67 80 5.0 13.0 0.00 0.00 0.00 60 1015.8
20260507123601 67 349 3.0 11.0 0.00 0.00 0.00 60 1011.3
20260507123501 67 69 4.0 11.0 0.00 0.00 0.00 61 1015.9
20260507123110 67 273 3.0 12.0 0.00 0.00 0.00 61 1011.3
20260507123001 67 48 4.0 12.0 0.00 0.00 0.00 61 1015.9
20260507122600 67 18 4.0 12.0 0.00 0.00 0.00 61 1011.4
20260507122503 67 340 5.0 12.0 0.00 0.00 0.00 61 1016.0
20260507122004 66 359 4.0 10.0 0.00 0.00 0.00 62 1016.1
20260507122000 66 359 5.0 10.0 0.00 0.00 0.00 62 1011.6
20260507121604 66 14 3.0 17.0 0.00 0.00 0.00 63 1011.5
20260507121502 66 324 4.0 17.0 0.00 0.00 0.00 64 1016.0
20260507121059 65 57 6.0 17.0 0.00 0.00 0.00 63 1011.7
20260507120600 65 68 4.0 15.0 0.00 0.00 0.00 63 1011.7
20260507120502 65 41 5.0 15.0 0.00 0.00 0.00 63 1011.7
20260507120007 65 108 5.0 15.0 0.00 0.00 0.00 65 1016.3
20260507120005 65 108 5.0 15.0 0.00 0.00 0.00 65 1011.8
20260507115600 65 44 3.0 16.0 0.00 0.02 0.00 67 1011.8
20260507115503 65 326 6.0 16.0 0.00 0.02 0.00 66 1016.3
20260507115101 65 92 4.0 16.0 0.00 0.02 0.00 66 1011.9
20260507115005 65 42 6.0 16.0 0.00 0.02 0.00 66 1016.4
20260507115000 65 42 5.0 16.0 0.00 0.02 0.00 66 1011.9
20260507114604 65 226 5.0 11.0 0.00 0.02 0.00 65 1011.9
20260507114501 65 81 5.0 11.0 0.00 0.02 0.00 65 1016.5
20260507114101 65 319 4.0 11.0 0.00 0.02 0.00 64 1011.9
20260507114002 65 69 5.0 16.0 0.00 0.02 0.00 65 1016.4
20260507113601 65 345 3.0 16.0 0.00 0.02 0.00 66 1011.9
20260507113502 65 357 4.0 16.0 0.00 0.02 0.00 66 1016.4
20260507113100 66 24 3.0 11.0 0.00 0.02 0.00 65 1011.9
20260507112600 65 70 3.0 11.0 0.00 0.02 0.00 66 1012.0
20260507112500 65 53 5.0 11.0 0.00 0.02 0.00 66 1016.4
20260507112104 65 30 4.0 13.0 0.00 0.02 0.00 65 1012.1
20260507112001 65 340 4.0 13.0 0.00 0.02 0.00 65 1016.5
20260507111600 65 77 5.0 14.0 0.00 0.02 0.00 65 1012.1
20260507111502 65 27 4.0 14.0 0.00 0.02 0.00 64 1016.6
20260507111102 65 66 5.0 14.0 0.00 0.02 0.00 64 1012.1
20260507111003 66 293 4.0 14.0 0.00 0.02 0.00 64 1016.7
20260507110600 66 345 2.0 10.0 0.00 0.02 0.00 65 1012.1
20260507110501 65 214 3.0 10.0 0.00 0.02 0.00 66 1016.6
20260507110100 65 44 3.0 13.0 0.00 0.02 0.00 66 1012.3
20260507110004 65 65 3.0 13.0 0.00 0.02 0.00 66 1016.8
20260507105600 65 354 3.0 13.0 0.00 0.02 0.00 66 1012.3
20260507105502 65 60 3.0 13.0 0.00 0.02 0.00 66 1016.8
20260507105100 65 76 3.0 9.0 0.00 0.02 0.00 66 1012.4
20260507105002 65 60 3.0 9.0 0.00 0.02 0.00 66 1016.9
20260507104600 64 37 1.0 12.0 0.00 0.02 0.00 68 1012.4
20260507104500 64 2 2.0 12.0 0.00 0.02 0.00 68 1016.9
20260507104102 64 358 3.0 12.0 0.00 0.02 0.00 67 1012.5
20260507104001 64 65 2.0 12.0 0.00 0.02 0.00 67 1017.1
20260507103600 64 20 2.0 9.0 0.00 0.02 0.00 69 1012.6
20260507103114 64 15 2.0 9.0 0.00 0.02 0.00 69 1012.7
20260507103003 64 71 2.0 9.0 0.00 0.02 0.00 69 1017.2
20260507102600 63 318 2.0 5.0 0.00 0.02 0.00 70 1012.8
20260507102501 63 284 2.0 5.0 0.00 0.02 0.00 71 1017.3
20260507102101 63 339 1.0 5.0 0.00 0.02 0.00 70 1012.8
20260507102001 62 323 2.0 5.0 0.00 0.02 0.00 71 1017.4
20260507101603 62 4 2.0 5.0 0.00 0.02 0.00 71 1012.9
20260507101502 62 326 3.0 5.0 0.00 0.02 0.00 71 1017.4
20260507101100 61 355 2.0 5.0 0.00 0.02 0.00 72 1013.0
20260507101001 61 349 3.0 5.0 0.00 0.02 0.00 71 1017.4
20260507100600 61 325 2.0 5.0 0.00 0.02 0.00 72 1013.0
20260507100500 61 350 3.0 5.0 0.00 0.02 0.00 72 1017.5
20260507100113 61 309 2.0 5.0 0.00 0.02 0.00 72 1013.0
20260507100006 61 319 2.0 5.0 0.00 0.02 0.00 72 1017.5
20260507100002 61 319 2.0 5.0 0.00 0.02 0.00 72 1013.0
20260507095603 61 326 2.0 4.0 0.00 0.03 0.00 73 1013.0
20260507095502 61 345 2.0 5.0 0.00 0.03 0.00 73 1017.6
20260507095101 60 356 1.0 5.0 0.00 0.03 0.00 74 1013.1
20260507095002 60 13 2.0 5.0 0.00 0.03 0.00 73 1017.7
20260507094600 60 285 2.0 4.0 0.00 0.03 0.00 73 1013.2
20260507094502 60 341 2.0 4.0 0.00 0.03 0.00 73 1017.8
20260507094100 60 344 1.0 3.0 0.00 0.03 0.00 73 1013.3
20260507094001 60 291 1.0 4.0 0.00 0.03 0.00 73 1013.3
20260507093603 60 345 0.0 4.0 0.00 0.03 0.00 75 1013.4
20260507093502 60 314 0.0 4.0 0.00 0.03 0.00 75 1013.4
20260507093102 59 333 1.0 4.0 0.00 0.03 0.00 75 1013.4
20260507093001 59 332 1.0 3.0 0.00 0.03 0.00 75 1018.0
20260507092600 59 274 0.0 5.0 0.00 0.03 0.00 74 1013.5
20260507092100 59 285 1.0 5.0 0.00 0.03 0.00 75 1013.5
20260507092003 59 323 2.0 4.0 0.00 0.03 0.00 75 1018.0
20260507091600 59 281 1.0 4.0 0.00 0.03 0.00 75 1013.5
20260507091501 59 341 2.0 3.0 0.00 0.03 0.00 75 1018.1
20260507091101 59 357 1.0 3.0 0.00 0.03 0.00 75 1013.6
20260507090559 58 350 1.0 4.0 0.00 0.03 0.00 75 1013.5
20260507090501 58 331 2.0 4.0 0.00 0.03 0.00 75 1018.1
20260507090100 58 319 1.0 4.0 0.00 0.03 0.00 75 1013.5
20260507090006 58 8 2.0 4.0 0.00 0.03 0.00 75 1018.0
20260507090002 58 8 1.0 4.0 0.00 0.03 0.00 75 1013.5
20260507085600 58 337 1.0 5.0 0.00 0.10 0.00 74 1013.5
20260507085100 59 309 2.0 5.0 0.00 0.10 0.00 73 1013.5
20260507085001 59 288 1.0 5.0 0.00 0.10 0.00 72 1018.0
20260507084602 59 347 1.0 3.0 0.00 0.10 0.00 73 1013.5
20260507084501 59 4 1.0 3.0 0.00 0.10 0.00 72 1018.0
20260507084100 59 339 0.0 2.0 0.00 0.10 0.00 72 1013.5
20260507084001 59 274 1.0 2.0 0.00 0.10 0.00 73 1018.1
20260507083600 59 15 0.0 3.0 0.00 0.10 0.00 74 1013.6
20260507083502 58 275 1.0 3.0 0.00 0.10 0.00 74 1018.1
20260507083120 58 294 2.0 3.0 0.00 0.10 0.00 73 1013.6
20260507083001 58 300 1.0 3.0 0.00 0.10 0.00 73 1018.1
20260507082600 58 229 0.0 3.0 0.00 0.10 0.00 74 1013.6
20260507082059 57 337 0.0 3.0 0.00 0.10 0.00 73 1013.7
20260507082002 58 222 1.0 4.0 0.00 0.10 0.00 73 1018.2
20260507081605 58 89 0.0 5.0 0.00 0.10 0.00 73 1013.7
20260507081100 57 63 2.0 5.0 0.00 0.10 0.00 74 1013.7
20260507081001 57 61 1.0 5.0 0.00 0.10 0.00 73 1018.2
20260507080600 57 121 0.0 4.0 0.00 0.10 0.00 75 1013.8
20260507080100 57 63 1.0 5.0 0.00 0.10 0.00 75 1013.8
20260507080005 57 85 2.0 5.0 0.00 0.10 0.00 75 1018.3
20260507080002 57 85 1.0 5.0 0.00 0.10 0.00 75 1013.8
20260507075602 57 99 2.0 5.0 0.00 0.12 0.00 74 1013.8
20260507075100 57 68 1.0 4.0 0.00 0.12 0.00 77 1013.8
20260507075001 56 54 1.0 4.0 0.00 0.12 0.00 77 1018.4
20260507074621 56 140 1.0 4.0 0.00 0.12 0.00 78 1013.9
20260507074502 55 78 2.0 4.0 0.00 0.12 0.00 78 1018.4
20260507074059 55 56 1.0 4.0 0.00 0.12 0.00 78 1013.9
20260507074001 55 60 2.0 4.0 0.00 0.12 0.00 77 1018.4
20260507073600 55 132 2.0 4.0 0.00 0.12 0.00 78 1013.9
20260507073501 55 108 2.0 4.0 0.00 0.12 0.00 78 1018.4
20260507073104 55 91 1.0 4.0 0.00 0.12 0.00 79 1014.0
20260507072600 54 82 1.0 5.0 0.00 0.12 0.00 80 1014.0
20260507072501 54 94 2.0 5.0 0.00 0.12 0.00 80 1018.5
20260507072100 54 63 2.0 5.0 0.00 0.12 0.00 81 1014.0
20260507071600 53 79 2.0 5.0 0.00 0.12 0.00 81 1014.0
20260507071501 53 68 3.0 5.0 0.00 0.12 0.00 81 1018.5
20260507071101 53 80 2.0 5.0 0.00 0.12 0.00 82 1014.0
20260507071001 53 82 3.0 5.0 0.00 0.12 0.00 81 1018.6
20260507070601 53 83 2.0 6.0 0.00 0.12 0.00 82 1014.1
20260507070501 53 60 3.0 6.0 0.00 0.12 0.00 83 1018.7
20260507070106 52 74 3.0 6.0 0.00 0.12 0.00 83 1014.2
20260507070009 52 93 4.0 6.0 0.00 0.12 0.00 83 1018.7
20260507070004 52 93 3.0 6.0 0.00 0.12 0.00 83 1014.2
20260507065559 52 75 3.0 6.0 0.00 0.12 0.00 83 1014.1
20260507065100 52 89 3.0 6.0 0.00 0.12 0.00 84 1014.1
20260507064603 51 120 3.0 6.0 0.00 0.12 0.00 84 1014.1
20260507064500 51 94 3.0 6.0 0.00 0.12 0.00 84 1018.7
20260507064101 51 51 2.0 7.0 0.00 0.12 0.00 85 1014.2
20260507063600 51 81 4.0 7.0 0.00 0.12 0.00 85 1014.2
20260507063500 51 129 4.0 7.0 0.00 0.12 0.00 85 1018.7
20260507063100 51 113 4.0 7.0 0.00 0.12 0.00 85 1014.2
20260507063002 51 73 4.0 7.0 0.00 0.12 0.00 85 1018.8
20260507062559 50 77 4.0 8.0 0.00 0.12 0.00 86 1014.2
20260507062500 50 88 4.0 8.0 0.00 0.12 0.00 86 1018.7
20260507062100 50 105 3.0 8.0 0.00 0.12 0.00 87 1014.2
20260507062001 50 65 4.0 8.0 0.00 0.12 0.00 87 1018.7
20260507061600 49 68 2.0 7.0 0.00 0.12 0.00 87 1014.2
20260507061502 49 94 3.0 7.0 0.00 0.12 0.00 87 1018.8
20260507061101 49 64 3.0 6.0 0.00 0.12 0.00 87 1014.3
20260507061001 49 79 3.0 6.0 0.00 0.12 0.00 88 1018.9
20260507060600 49 65 3.0 6.0 0.00 0.12 0.00 88 1014.4
20260507060007 48 65 3.0 7.0 0.00 0.12 0.00 89 1018.9
20260507055559 48 115 2.0 7.0 0.00 0.19 0.00 89 1014.3
20260507055500 48 359 3.0 7.0 0.00 0.19 0.00 89 1018.9
20260507055059 48 75 2.0 5.0 0.00 0.19 0.00 90 1014.3
20260507055001 48 108 3.0 5.0 0.00 0.19 0.00 90 1018.9
20260507054559 48 72 2.0 6.0 0.00 0.19 0.00 89 1014.3
20260507054501 48 61 3.0 7.0 0.00 0.19 0.00 89 1018.9
20260507054059 48 114 3.0 7.0 0.00 0.19 0.00 89 1014.4
20260507054002 48 86 4.0 7.0 0.00 0.19 0.00 89 1018.9
20260507053600 48 117 2.0 7.0 0.00 0.19 0.00 90 1014.3
20260507053501 48 63 4.0 7.0 0.00 0.19 0.00 89 1018.9
20260507053100 48 82 3.0 7.0 0.00 0.19 0.00 89 1014.2
20260507053003 48 77 4.0 7.0 0.00 0.19 0.00 89 1018.8
20260507052601 48 65 3.0 6.0 0.00 0.19 0.00 89 1014.3
20260507052501 48 70 3.0 7.0 0.00 0.19 0.00 89 1018.8
20260507052100 48 78 3.0 7.0 0.00 0.19 0.00 89 1014.3
20260507052001 48 71 3.0 7.0 0.00 0.19 0.00 89 1018.8
20260507051602 48 117 3.0 7.0 0.00 0.19 0.00 89 1014.3
20260507051501 48 95 3.0 7.0 0.00 0.19 0.00 89 1018.8
20260507051103 48 66 3.0 5.0 0.00 0.19 0.00 89 1014.4
20260507051003 48 105 3.0 5.0 0.00 0.19 0.00 89 1018.9
20260507050603 48 113 2.0 5.0 0.00 0.19 0.00 89 1014.3
20260507050501 48 108 2.0 5.0 0.00 0.19 0.00 89 1018.9
20260507050100 48 96 1.0 5.0 0.00 0.19 0.00 89 1014.3
20260507050006 48 111 2.0 5.0 0.00 0.19 0.00 89 1018.8
20260507050002 48 111 2.0 5.0 0.00 0.19 0.00 89 1014.3
20260507045606 48 82 2.0 5.0 0.00 0.21 0.00 89 1014.2
20260507045500 48 119 3.0 5.0 0.00 0.21 0.00 89 1018.8
20260507045059 48 34 1.0 6.0 0.00 0.21 0.00 90 1014.2
20260507045002 48 86 3.0 6.0 0.00 0.21 0.00 89 1018.7
20260507044602 48 109 2.0 6.0 0.00 0.21 0.00 89 1014.1
20260507044500 48 99 3.0 6.0 0.00 0.21 0.00 89 1018.7
20260507044104 48 72 2.0 7.0 0.00 0.21 0.00 90 1014.1
20260507044001 48 110 3.0 7.0 0.00 0.21 0.00 90 1018.7
20260507043559 48 84 3.0 7.0 0.00 0.21 0.00 89 1014.1
20260507043501 48 73 3.0 7.0 0.00 0.21 0.00 89 1018.6
20260507043103 48 94 2.0 6.0 0.00 0.21 0.00 90 1014.2
20260507043002 48 94 3.0 6.0 0.00 0.21 0.00 90 1018.7
20260507042600 48 91 2.0 7.0 0.00 0.21 0.00 90 1014.2
20260507042500 48 93 3.0 7.0 0.00 0.21 0.00 90 1018.7
20260507042059 48 96 3.0 7.0 0.00 0.21 0.00 90 1014.2
20260507042002 48 94 3.0 7.0 0.00 0.21 0.00 89 1018.7
20260507041601 48 69 3.0 8.0 0.00 0.21 0.00 90 1014.2
20260507041501 48 95 4.0 8.0 0.00 0.21 0.00 90 1018.7
20260507041100 48 76 3.0 8.0 0.00 0.21 0.00 90 1014.2
20260507040602 48 66 3.0 6.0 0.00 0.21 0.00 90 1014.3
20260507040500 48 87 3.0 7.0 0.00 0.21 0.00 90 1018.8
20260507040100 48 65 2.0 7.0 0.00 0.21 0.00 90 1014.3
20260507040005 48 101 4.0 7.0 0.00 0.21 0.00 90 1018.8
20260507040002 48 101 2.0 7.0 0.00 0.21 0.00 90 1014.3
20260507035559 48 81 3.0 7.0 0.00 0.22 0.00 90 1014.3
20260507035102 48 70 3.0 6.0 0.00 0.22 0.00 90 1014.4
20260507035001 48 95 3.0 6.0 0.00 0.22 0.00 90 1018.9
20260507034600 48 92 2.0 6.0 0.00 0.22 0.00 90 1014.4
20260507034502 48 105 3.0 6.0 0.00 0.22 0.00 90 1018.9
20260507034100 48 95 2.0 6.0 0.00 0.22 0.00 89 1014.4
20260507033600 48 81 2.0 6.0 0.00 0.22 0.00 89 1014.3
20260507033501 48 75 3.0 6.0 0.00 0.22 0.00 89 1018.9
20260507033100 48 127 3.0 7.0 0.00 0.22 0.00 89 1014.4
20260507033001 48 91 3.0 7.0 0.00 0.22 0.00 89 1018.9
20260507032601 48 116 3.0 7.0 0.00 0.22 0.00 89 1014.4
20260507032502 48 92 3.0 7.0 0.00 0.22 0.00 90 1018.9
20260507032100 48 113 3.0 6.0 0.00 0.22 0.00 90 1014.4
20260507032002 48 93 3.0 6.0 0.00 0.22 0.00 90 1018.9
20260507031600 48 111 2.0 6.0 0.00 0.22 0.00 90 1014.5
20260507031500 48 95 3.0 6.0 0.00 0.22 0.00 90 1019.0
20260507031103 48 63 3.0 6.0 0.00 0.22 0.00 89 1014.4
20260507031001 48 87 3.0 6.0 0.00 0.22 0.00 89 1019.0
20260507030559 48 67 2.0 6.0 0.00 0.22 0.00 90 1014.5
20260507030501 48 78 3.0 6.0 0.00 0.22 0.00 90 1019.0
20260507030101 49 89 2.0 5.0 0.00 0.22 0.00 90 1014.4
20260507030006 49 84 3.0 5.0 0.00 0.22 0.00 90 1018.9
20260507030003 49 84 3.0 5.0 0.00 0.22 0.00 90 1014.4
20260507025604 49 72 3.0 7.0 0.00 0.22 0.00 90 1014.4
20260507025501 49 101 4.0 7.0 0.00 0.22 0.00 90 1018.9
20260507025101 48 87 3.0 7.0 0.00 0.22 0.00 90 1014.3
20260507025001 48 101 4.0 7.0 0.00 0.22 0.00 90 1018.8
20260507024630 48 99 3.0 9.0 0.00 0.22 0.00 90 1014.3
20260507024501 48 70 4.0 9.0 0.00 0.22 0.00 90 1018.9
20260507024059 48 70 4.0 9.0 0.00 0.22 0.00 90 1014.4
20260507023602 48 105 3.0 8.0 0.00 0.22 0.00 90 1014.4
20260507023501 49 98 4.0 8.0 0.00 0.22 0.00 90 1019.0
20260507023100 49 100 4.0 8.0 0.00 0.22 0.00 89 1014.5
20260507023001 49 58 4.0 8.0 0.00 0.22 0.00 89 1019.0
20260507022600 49 74 5.0 8.0 0.00 0.22 0.00 89 1014.5
20260507022502 49 89 3.0 8.0 0.00 0.22 0.00 89 1019.0
20260507022100 49 80 3.0 6.0 0.00 0.22 0.00 89 1014.5
20260507022001 49 90 3.0 6.0 0.00 0.22 0.00 89 1019.1
20260507021600 49 113 2.0 6.0 0.00 0.22 0.00 89 1014.5
20260507021501 49 93 4.0 6.0 0.00 0.22 0.00 89 1019.0
20260507021100 49 81 3.0 6.0 0.00 0.22 0.00 89 1014.5
20260507021001 49 74 3.0 6.0 0.00 0.22 0.00 89 1019.0
20260507020601 49 63 3.0 6.0 0.00 0.22 0.00 89 1014.6
20260507020502 49 77 3.0 6.0 0.00 0.22 0.00 89 1019.1
20260507020111 49 64 2.0 6.0 0.00 0.22 0.00 89 1014.6
20260507020004 49 98 3.0 6.0 0.00 0.22 0.00 89 1019.1
20260507015559 49 108 3.0 6.0 0.00 0.22 0.00 89 1014.6
20260507015500 49 83 4.0 6.0 0.00 0.22 0.00 89 1019.1
20260507015100 49 66 3.0 7.0 0.00 0.22 0.00 89 1014.6
20260507015002 49 89 4.0 7.0 0.00 0.22 0.00 89 1019.2
20260507014609 49 78 4.0 7.0 0.00 0.22 0.00 89 1014.6
20260507014500 49 65 4.0 7.0 0.00 0.22 0.00 89 1019.2
20260507014100 49 65 3.0 7.0 0.00 0.22 0.00 88 1014.8
20260507013559 49 87 2.0 6.0 0.00 0.22 0.00 89 1014.7
20260507013501 49 83 3.0 6.0 0.00 0.22 0.00 89 1019.2
20260507013100 49 110 3.0 6.0 0.00 0.22 0.00 89 1014.7
20260507013001 50 93 3.0 6.0 0.00 0.22 0.00 89 1019.2
20260507012600 50 80 3.0 6.0 0.00 0.22 0.00 89 1014.7
20260507012500 50 74 3.0 6.0 0.00 0.22 0.00 89 1019.2
20260507012100 50 111 2.0 5.0 0.00 0.22 0.00 89 1014.6
20260507012004 50 96 3.0 5.0 0.00 0.22 0.00 89 1019.2
20260507011603 50 98 1.0 6.0 0.00 0.22 0.00 89 1014.6
20260507011501 50 113 3.0 6.0 0.00 0.22 0.00 89 1019.2
20260507011059 50 67 2.0 7.0 0.00 0.22 0.00 89 1014.6
20260507011001 50 98 3.0 7.0 0.00 0.22 0.00 89 1019.2
20260507010559 50 70 3.0 7.0 0.00 0.22 0.00 89 1014.7
20260507010501 50 111 3.0 7.0 0.00 0.22 0.00 89 1019.2
20260507010100 50 104 2.0 7.0 0.00 0.22 0.00 89 1014.7
20260507010004 50 87 4.0 7.0 0.00 0.22 0.00 89 1019.2
20260507010002 50 87 3.0 7.0 0.00 0.22 0.00 89 1014.7
20260507005600 50 85 4.0 7.0 0.00 0.22 0.00 89 1014.7
20260507005500 50 93 4.0 6.0 0.00 0.22 0.00 89 1019.3
20260507005059 50 101 3.0 7.0 0.00 0.22 0.00 89 1014.8
20260507005001 50 94 4.0 7.0 0.00 0.22 0.00 89 1019.4
20260507004559 50 108 3.0 7.0 0.00 0.22 0.00 89 1014.9
20260507004502 50 102 4.0 7.0 0.00 0.22 0.00 89 1019.5
20260507004101 50 121 3.0 6.0 0.00 0.22 0.00 89 1014.9
20260507004001 50 73 3.0 6.0 0.00 0.22 0.00 89 1019.5
20260507003600 50 102 3.0 6.0 0.00 0.22 0.00 89 1014.9
20260507003502 50 82 3.0 6.0 0.00 0.22 0.00 89 1019.5
20260507003100 50 84 3.0 6.0 0.00 0.22 0.00 89 1015.0
20260507003001 50 110 3.0 6.0 0.00 0.22 0.00 89 1019.5
20260507002600 50 89 2.0 4.0 0.00 0.22 0.00 89 1015.0
20260507002501 50 65 3.0 4.0 0.00 0.22 0.00 89 1019.6
20260507002102 51 97 2.0 5.0 0.00 0.22 0.00 90 1015.0
20260507002001 51 77 3.0 6.0 0.00 0.22 0.00 90 1019.5
20260507001602 50 127 2.0 7.0 0.00 0.22 0.00 89 1015.0
20260507001501 50 78 3.0 7.0 0.00 0.22 0.00 89 1019.5
20260507001059 51 84 2.0 7.0 0.00 0.22 0.00 89 1015.0
20260507001001 51 124 3.0 7.0 0.00 0.22 0.00 89 1019.6
20260507000600 51 90 3.0 6.0 0.00 0.22 0.00 89 1015.1
20260507000500 51 84 3.0 6.0 0.00 0.22 0.00 89 1019.7
20260507000100 51 68 2.0 5.0 0.00 0.22 0.00 89 1015.1
20260507000005 51 96 2.0 5.0 0.00 0.22 0.00 89 1019.7
20260507000002 51 96 2.0 5.0 0.00 0.22 0.00 89 1015.1
20260506235600 51 91 2.0 5.0 0.00 0.22 0.00 89 1015.1
20260506235100 51 108 2.0 5.0 0.00 0.22 0.00 89 1015.1
20260506235001 51 120 2.0 5.0 0.00 0.22 0.00 89 1019.7
20260506234609 51 86 1.0 5.0 0.00 0.22 0.00 89 1015.1